Regional Weather Roundup
Issued by NWS

Home | Current Version | Previous Version | Text Only | Print | Product List | Glossary On
Versions: 1 2 3 4 5 6 7 8 9 10 11 12 13 14 15 16 17 18 19 20 21 22 23 24 25 26 27 28 29 30 31 32 33 34 35 36 37 38 39 40 41 42 43 44 45 46 47 48 49 50
000
ASUS44 KLIX 221614
RWRLA
LOUISIANA WEATHER ROUNDUP
NATIONAL WEATHER SERVICE NEW ORLEANS LA
1100 AM CDT SUN OCT 22 2017

NOTE: "FAIR" INDICATES FEW OR NO CLOUDS BELOW 12,000 FEET WITH NO
      SIGNIFICANT WEATHER AND/OR OBSTRUCTIONS TO VISIBILITY.
      SKY/WX - SKY CONDITION AND SIGNIFICANT WEATHER.
      TMP - AIR TEMPERATURE.    DP   - DEWPOINT TEMPERATURE.
      RH  - RELATIVE HUMIDITY.  PRES - PRESSURE.
      HX  - HEAT INDEX.         WCI  - WIND CHILL INDEX.

*  THESE STATIONS ARE NOT NWS OR FAA STATIONS AND ARE NOT UNDER
   NWS QUALITY CONTROL.

LAZ040-048-061>063-065-066-069-221700-
SOUTHEAST LOUISIANA

CITY           SKY/WX    TMP DP  RH WIND       PRES   REMARKS
N.O. INTL ARPT PTSUNNY   82  76  81 S7        30.04R
N.O. LAKEFRONT CLOUDY   N/A N/A N/A MISG      30.05R
N.O. DOWNTOWN* PTSUNNY   81  75  82 S6G16     30.05R
RESERVE*       PTSUNNY   82  72  72 W6        30.06R
SLIDELL        LGT RAIN  74  72  93 VRB5      30.05R
BATON ROUGE    LGT RAIN  63  59  87 N13G24    30.14R
BOOTHVILLE     MOSUNNY   87  78  74 S9        30.04S HX 100
BELLE CHASSE   PTSUNNY   82  76  80 S9        30.04R
BOGALUSA*      CLOUDY    74  68  83 SE3       30.08R
GALLIANO*      MOSUNNY   82  74  77 SW7       30.05R
NEW ROADS*     RAIN      61  58  90 NW9       30.15S
GONZALES*      LGT RAIN  67  61  81 NW32G41   30.10R
HAMMOND*       CLOUDY    73  70  88 E3        30.05S
HOUMA*         SUNNY     84  75  74 S8        30.06R
PORT FOURCHON* SUNNY     82  75  78 SW8       30.05R

$$

LAZ041-044-053-054-221700-
SOUTHWEST LOUISIANA

CITY           SKY/WX    TMP DP  RH WIND       PRES   REMARKS
LAKE CHARLES   LGT RAIN  64  60  87 N12       30.17R
LAFAYETTE      CLOUDY    63  60  90 NW14      30.18R
PATTERSON      RAIN      66  61  82 N31G47    30.10R SQUALL
SALT POINT       N/A     75  70  84 MISG      30.10R
NEW IBERIA     CLOUDY    63  58  83 N21G26    30.16R
CHENAULT AIRPK LGT RAIN  61  59  94 N13G21    30.17R

$$

LAZ027-028-221700-
CENTRAL LOUISIANA

CITY           SKY/WX    TMP DP  RH WIND       PRES   REMARKS
FORT POLK      LGT RAIN  61  59  92 N3        30.15F FOG
ALEXANDRIA INT LGT RAIN  62  58  86 E5        30.13F
ALEXANDRIA       N/A    N/A N/A N/A MISG      30.15S

$$

LAZ001-002-221700-
NORTHWEST LOUISIANA

CITY           SKY/WX    TMP DP  RH WIND       PRES   REMARKS
SHREVEPORT     LGT RAIN  62  61  96 S8        30.05F
BARKSDALE AFB  CLOUDY    61  60  97 SE8       30.04F
DTN SHREVEPORT CLOUDY    63  60  90 SE9       30.05F

$$

LAZ014-016-221700-
NORTHEAST LOUISIANA

CITY           SKY/WX    TMP DP  RH WIND       PRES   REMARKS
MONROE         LGT RAIN  64  61  90 W13       30.11S
TALLULAH       LGT RAIN  63  63 100 CALM      30.09S

$$




USA.gov is the U.S. government's official web portal to all federal, state and local government web resources and services.